User: anonymous   Login
Location: Caltech
(34.1382°N, 118.1253°W)
Time: 10:57:01
(UTC-07:00)
Language:

Cosmos 44 Rocket - Orbit

View from above orbital plane
View from above orbital plane
View from above satellite
View from above satellite

Ground track
Ground track

The orbit data is extracted from the following two-line orbital elements,

1 00877U 64053B   15209.86828740  .00000005  00000-0  26067-4 0  9990
2 00877 065.0783 146.2896 0062558 006.6515 353.5399 14.59139425700937
Epoch (UTC): 28 July 2015 20:50:20
Eccentricity: 0.0062558
inclination: 65.0783°
perigee height: 652 km
apogee height: 740 km
right ascension of ascending node: 146.2896°
argument of perigee: 6.6515°
revolutions per day: 14.59139425
mean anomaly at epoch: 353.5399°
orbit number at epoch: 70093

The dashed part of the orbit path shows where the satellite is in the earth's shadow,  

DLR